Location: Saint-Palais-sur-Mer
(45.6429°N, 1.0859°W)
Time: 23:56:33
(UTC+01:00)

Vanguard 1 - Pass Details

Date: 08 February 2026
Orbit: 653 x 3818 km, 34.2° (Epoch: 12 March)

Event Time Altitude Azimuth Distance (km) Brightness Sun altitude
Rises 22:26:39 0° 270° (W) 7,185 15.1 -42.6°
Reaches altitude 10° 22:31:10 10° 266° (W) 6,439 14.7 -43.3°
Maximum altitude 22:52:36 56° 197° (SSW) 4,251 12.9 -46.5°
Enters shadow 22:53:50 55° 188° (S) 4,246 12.9 -46.7°
